Wind_Speed
40 40 39 38 38 38 39 39 39 37 36 36 36 36 36 36 35 34 33 32 32 33 33 33 34 34 34 35 35 36 36 36 36 36 37 37 37 37 38 38 39 40 42
42 42 42 42 42 41 42 42 42 41 40 39 38 39 40 40 39 36 34 33 33 34 34 34 34 33 34 34 35 35 35 35 35 36 37 37 37 38 39 40 41 42 44
45 45 46 46 45 45 44 44 45 45 44 43 42 42 43 42 40 38 36 36 38 38 36 35 34 33 34 34 34 34 34 35 35 36 37 37 38 39 40 41 42 44 45
46 46 46 47 48 47 47 47 47 47 47 47 46 45 44 43 42 42 42 42 42 40 38 36 35 35 35 35 35 35 35 36 36 37 37 38 39 40 41 42 43 45 46
45 46 47 48 50 50 51 50 50 50 50 50 50 48 46 45 45 46 46 45 45 44 42 40 38 38 38 37 36 36 36 36 37 38 38 39 39 40 41 43 44 45 47
46 48 50 52 53 55 56 56 55 55 55 54 53 52 50 48 47 48 49 48 48 47 46 44 42 41 40 39 38 37 36 37 38 39 40 40 40 41 42 43 44 46 47
50 53 55 56 58 59 61 62 62 61 61 60 59 57 55 52 50 50 51 51 50 50 48 47 45 44 42 40 39 38 38 38 39 40 41 41 41 42 43 45 46 47 48
52 54 57 59 60 62 63 64 65 66 65 65 64 62 60 57 54 53 52 52 51 51 50 48 46 45 44 42 40 40 40 40 41 41 42 42 43 44 46 48 49 50 51
50 53 55 57 59 60 61 62 63 65 66 66 66 66 64 61 58 55 53 52 51 51 50 48 47 46 44 42 41 41 41 41 42 42 43 44 44 46 48 51 53 55 56
49 52 55 56 57 58 59 59 60 62 63 63 64 64 64 63 61 58 55 53 51 50 49 47 46 45 43 42 42 42 42 43 43 44 44 45 46 49 51 54 57 59 60
49 52 55 55 55 55 55 55 56 57 58 59 60 61 61 61 61 58 55 52 50 48 47 46 45 44 42 42 42 43 43 44 44 44 45 46 49 52 55 58 60 62 63
49 51 52 53 53 52 50 50 51 51 53 55 56 57 58 58 58 57 54 51 48 46 45 44 43 42 41 41 42 44 45 45 45 45 47 49 52 56 59 61 62 64 65
45 47 48 47 46 45 43 42 44 45 47 50 51 53 55 54 54 53 51 48 46 44 42 41 40 40 40 41 43 44 45 45 45 47 50 54 57 59 60 62 64 66 67
40 41 39 36 34 34 34 34 36 37 39 42 45 47 49 50 50 49 47 44 42 41 40 39 39 39 40 41 43 44 45 46 48 51 54 57 58 60 62 64 66 67 67
35 33 29 24 22 23 25 26 27 29 32 35 38 41 43 44 44 43 42 40 39 37 37 37 37 38 40 41 42 44 46 48 51 54 56 58 60 62 64 66 67 67 68
29 26 21 16 13 13 15 18 20 22 25 28 31 34 36 38 39 38 37 35 35 34 34 34 36 38 40 40 42 45 48 51 53 55 57 59 61 63 65 67 67 69 70
26 23 17 11 6 4 8 12 15 18 21 23 25 27 30 32 33 32 31 31 32 32 32 34 38 40 41 42 45 48 50 51 53 56 58 60 63 64 66 67 68 70 73
22 20 17 12 7 4 7 11 13 16 18 21 23 25 27 28 28 28 29 29 30 31 33 36 37 39 42 44 45 47 49 52 54 57 59 61 63 65 66 68 70 73 76
19 18 16 14 12 11 10 12 15 17 19 20 22 23 24 24 25 26 26 28 30 32 34 34 36 39 40 42 44 47 50 53 56 58 60 62 64 66 69 71 74 76 79
17 16 15 15 14 13 14 15 16 16 18 19 20 21 21 21 22 23 25 27 30 31 32 33 35 37 39 42 45 48 51 54 56 59 61 64 66 70 73 75 77 79 81
14 13 13 14 14 14 14 14 14 15 15 15 15 16 16 18 20 21 23 24 25 25 28 31 33 36 40 43 46 49 52 54 57 60 63 67 70 73 75 78 80 80 79
12 11 11 10 11 11 11 10 8 7 7 7 9 11 13 14 16 16 17 18 21 24 28 31 34 38 42 45 47 50 53 56 59 63 67 71 73 76 78 80 80 77 71
10 9 9 9 8 8 8 7 6 5 4 4 4 4 5 7 10 12 14 18 22 26 29 33 36 39 42 45 48 52 56 60 64 68 72 74 76 79 80 78 73 65 56
8 7 6 7 7 6 6 6 5 4 3 3 3 4 6 9 12 15 18 22 25 28 32 34 37 40 43 47 51 56 60 65 69 72 75 77 78 77 73 66 57 46 39
6 5 4 4 5 5 5 5 5 5 5 6 7 9 11 14 17 20 22 25 28 30 33 35 39 42 46 51 56 61 65 69 72 74 75 75 72 66 56 46 37 31 28
5 4 4 4 4 5 6 6 7 8 9 11 12 14 16 19 21 23 25 27 29 31 34 37 41 45 50 55 60 65 69 71 72 72 69 65 57 47 37 29 25 23 22
Wind_Direction
249 249 249 248 245 244 245 247 248 249 248 250 252 255 256 257 257 257 259 261 264 265 266 268 270 274 278 281 284 286 287 287 287 288 288 288 287 288 288 287 285 284 284
249 249 249 249 248 246 246 246 248 249 249 249 250 252 254 256 258 259 261 263 264 264 265 267 270 273 277 280 283 286 287 288 288 289 290 290 289 289 289 289 289 288 288
251 250 250 249 249 248 247 247 247 248 249 250 249 250 253 256 259 261 261 261 262 263 265 267 269 272 275 278 282 285 287 289 289 290 290 290 290 290 290 291 290 290 290
254 253 253 252 252 251 250 249 249 249 249 251 251 252 254 257 260 260 259 259 261 264 266 268 269 271 274 277 281 284 286 288 289 290 290 289 289 290 291 291 291 292 293
256 256 256 256 255 255 254 253 253 251 251 251 252 253 253 255 256 258 260 261 262 264 266 268 270 271 273 276 279 282 285 286 287 288 289 290 290 291 293 294 295 295 296
259 259 259 258 258 258 257 257 256 254 253 252 251 252 253 254 254 256 258 259 261 262 264 266 269 271 273 275 277 280 282 284 286 287 287 289 290 291 293 294 296 297 298
262 262 262 261 260 260 259 258 257 255 254 253 252 252 253 253 253 253 255 257 259 261 263 265 267 270 272 274 276 277 279 282 284 285 286 288 290 291 292 293 295 295 296
269 268 266 264 262 261 259 257 255 254 252 251 251 251 251 252 252 252 253 255 257 259 261 263 266 268 271 273 274 275 278 281 283 284 286 288 290 291 292 293 294 295 296
276 275 272 270 268 264 261 258 254 252 250 249 248 248 248 249 249 250 251 253 255 256 259 262 264 266 269 271 272 274 277 280 283 284 286 287 289 291 292 293 295 296 297
281 280 277 274 270 266 263 259 254 250 248 247 245 244 244 244 245 247 249 251 253 255 257 259 262 265 267 268 271 273 277 280 283 285 287 288 289 291 292 294 296 297 297
289 287 283 279 274 269 264 259 254 250 246 243 242 241 240 240 241 243 245 248 250 253 255 257 260 263 265 267 270 273 278 281 284 286 287 289 290 291 293 294 295 297 297
294 291 287 282 276 271 264 257 252 247 243 239 237 236 235 235 236 238 241 244 248 251 253 256 259 261 263 267 271 275 279 282 284 286 288 290 291 292 293 294 295 296 297
301 297 292 285 276 268 261 253 248 243 239 236 234 232 231 231 232 233 237 240 244 248 251 254 257 259 262 266 270 276 280 283 286 287 289 291 291 292 293 295 296 297 297
309 305 299 289 276 266 258 249 244 239 236 233 231 229 228 227 228 229 232 236 241 246 250 253 256 259 263 267 273 277 280 283 286 288 289 290 291 293 294 295 296 297 298
319 315 309 295 278 263 252 242 237 233 231 228 226 225 224 224 223 225 229 234 239 244 249 253 256 260 264 269 274 278 282 285 288 288 289 291 292 294 295 296 297 298 297
334 331 326 315 289 262 241 229 223 221 221 219 218 218 218 218 218 221 226 232 238 243 247 252 257 261 265 270 275 279 283 285 287 289 291 292 293 295 296 298 298 298 298
351 351 348 339 327 252 211 203 202 201 200 201 204 207 208 210 213 217 223 230 236 240 247 253 258 262 267 270 274 279 284 286 289 291 293 294 295 297 298 298 299 299 299
4 8 14 25 42 97 147 164 173 176 179 182 188 194 198 202 207 214 222 229 236 242 248 256 261 264 267 271 278 284 288 290 292 293 295 296 297 298 298 299 299 300 300
15 23 34 46 62 88 116 135 147 159 166 172 177 184 191 198 206 214 222 233 240 248 251 257 265 269 275 282 286 289 292 293 295 296 297 298 299 299 299 300 301 301 302
24 34 46 58 71 89 109 124 134 143 151 160 172 181 191 201 211 222 231 238 245 251 257 263 272 280 286 289 291 293 295 296 298 299 300 300 301 301 301 301 302 302 302
26 36 48 61 71 82 99 113 124 133 144 157 171 184 196 211 224 235 242 248 256 264 272 280 285 289 291 293 296 297 299 300 301 301 302 302 302 302 302 303 303 303 304
26 34 44 57 66 75 89 104 120 137 153 171 192 204 211 225 236 244 255 267 277 283 286 289 292 294 297 299 300 301 302 302 303 303 303 303 303 303 303 304 304 304 305
17 28 40 52 61 68 74 83 95 107 133 167 196 219 242 261 272 281 285 287 289 291 294 297 299 301 302 303 304 305 305 305 305 305 304 304 304 304 304 305 305 306 306
7 20 36 49 54 56 55 54 58 55 43 18 338 311 300 296 295 295 296 298 299 301 303 304 306 306 307 307 308 307 307 307 306 306 305 305 305 305 305 306 306 307 308
349 6 21 29 31 33 33 31 26 15 358 341 327 317 310 306 305 305 306 306 307 308 309 309 310 310 310 310 310 309 309 308 307 307 307 307 307 308 308 308 308 310 313
321 324 335 345 351 353 353 350 346 340 332 324 318 314 311 310 310 310 310 310 310 311 312 313 313 312 312 312 311 311 310 309 309 309 309 310 311 311 312 313 316 319 320
Height
5755 5757 5759 5760 5762 5764 5765 5767 5768 5770 5772 5773 5773 5774 5775 5777 5778 5779 5780 5781 5781 5781 5781 5781 5780 5780 5779 5778 5777 5775 5773 5771 5769 5767 5765 5763 5761 5760 5758 5756 5754 5752 5750
5746 5748 5750 5751 5753 5754 5756 5757 5759 5761 5763 5764 5765 5766 5766 5766 5769 5771 5773 5774 5773 5773 5773 5773 5773 5772 5771 5770 5769 5767 5766 5764 5762 5760 5757 5755 5754 5751 5749 5747 5744 5742 5740
5737 5738 5739 5741 5743 5744 5746 5748 5749 5751 5752 5754 5756 5756 5757 5758 5761 5763 5765 5765 5764 5763 5764 5765 5765 5764 5763 5762 5761 5760 5758 5756 5754 5752 5750 5747 5745 5743 5741 5738 5735 5732 5730
5726 5728 5729 5730 5732 5733 5735 5737 5738 5740 5742 5743 5745 5747 5748 5750 5752 5754 5754 5755 5755 5755 5756 5756 5756 5756 5755 5754 5753 5752 5750 5748 5746 5744 5741 5739 5737 5734 5732 5729 5726 5722 5719
5716 5717 5718 5719 5720 5721 5723 5724 5726 5728 5730 5732 5734 5736 5739 5741 5742 5743 5743 5745 5745 5746 5746 5747 5747 5747 5746 5746 5745 5743 5742 5740 5738 5735 5733 5730 5727 5725 5722 5719 5716 5712 5708
5706 5707 5707 5707 5708 5708 5709 5710 5712 5714 5716 5718 5721 5724 5727 5729 5731 5732 5733 5734 5735 5735 5737 5737 5738 5738 5737 5737 5736 5735 5733 5731 5729 5727 5724 5721 5719 5716 5713 5709 5706 5702 5697
5695 5694 5694 5694 5693 5693 5693 5694 5695 5698 5700 5703 5707 5710 5713 5716 5719 5720 5721 5723 5724 5725 5726 5727 5728 5728 5728 5727 5727 5726 5724 5722 5720 5718 5715 5712 5709 5706 5703 5699 5696 5692 5688
5680 5679 5678 5677 5676 5675 5674 5675 5676 5679 5681 5685 5690 5694 5699 5702 5705 5708 5710 5712 5714 5715 5716 5717 5718 5718 5718 5718 5717 5716 5715 5713 5711 5708 5706 5702 5699 5696 5692 5688 5684 5680 5677
5664 5661 5659 5657 5655 5654 5653 5653 5655 5658 5661 5666 5671 5677 5683 5687 5691 5694 5698 5700 5702 5704 5706 5707 5708 5708 5708 5708 5707 5707 5705 5703 5701 5698 5695 5692 5688 5684 5680 5675 5671 5667 5662
5647 5643 5640 5636 5634 5632 5631 5631 5633 5637 5641 5646 5652 5659 5666 5671 5676 5680 5685 5688 5691 5694 5696 5697 5698 5699 5699 5698 5697 5696 5695 5693 5691 5687 5684 5681 5677 5672 5667 5662 5657 5652 5647
5630 5624 5619 5615 5612 5610 5610 5610 5612 5616 5621 5627 5634 5642 5649 5655 5661 5667 5672 5677 5681 5684 5686 5688 5689 5689 5689 5688 5687 5686 5685 5683 5680 5677 5673 5669 5665 5660 5654 5649 5643 5637 5631
5615 5607 5600 5594 5590 5589 5589 5590 5592 5597 5603 5609 5617 5625 5632 5640 5647 5654 5660 5666 5670 5673 5676 5678 5679 5680 5680 5679 5678 5676 5675 5672 5669 5665 5662 5657 5652 5647 5641 5635 5629 5623 5616
5600 5590 5581 5575 5571 5569 5570 5572 5575 5580 5586 5593 5601 5609 5618 5626 5634 5642 5649 5655 5660 5664 5666 5668 5670 5671 5671 5670 5669 5667 5664 5661 5658 5654 5649 5644 5639 5633 5627 5621 5614 5607 5600
5587 5577 5567 5559 5555 5554 5555 5558 5562 5568 5574 5581 5589 5597 5606 5615 5624 5632 5639 5646 5650 5654 5657 5659 5660 5661 5661 5660 5658 5656 5653 5650 5646 5642 5637 5631 5625 5619 5613 5606 5599 5591 5583
5578 5567 5557 5550 5546 5545 5546 5549 5554 5559 5566 5573 5581 5589 5598 5607 5616 5624 5631 5637 5642 5646 5649 5650 5651 5652 5652 5650 5648 5646 5642 5639 5634 5629 5623 5617 5611 5604 5598 5590 5583 5575 5567
5574 5563 5553 5546 5542 5540 5541 5544 5549 5555 5561 5568 5576 5584 5593 5602 5610 5618 5625 5631 5635 5638 5640 5642 5642 5642 5642 5640 5638 5635 5631 5627 5622 5616 5610 5603 5596 5589 5582 5574 5566 5557 5548
5573 5563 5554 5547 5542 5540 5541 5543 5548 5553 5560 5567 5575 5583 5591 5599 5607 5614 5620 5625 5628 5631 5633 5634 5634 5633 5631 5629 5627 5623 5619 5614 5609 5602 5596 5589 5581 5573 5566 5558 5549 5539 5528
5575 5566 5559 5552 5547 5545 5544 5546 5550 5555 5561 5567 5575 5583 5590 5597 5604 5610 5615 5619 5621 5623 5624 5625 5625 5624 5622 5619 5616 5612 5607 5601 5595 5589 5582 5574 5566 5557 5549 5542 5533 5522 5510
5579 5572 5565 5560 5556 5553 5552 5553 5556 5560 5565 5570 5577 5584 5590 5596 5602 5606 5610 5613 5615 5616 5617 5617 5617 5615 5612 5609 5605 5600 5594 5588 5581 5574 5567 5559 5550 5542 5533 5525 5515 5505 5492
5584 5578 5573 5568 5564 5562 5561 5562 5563 5566 5570 5575 5580 5585 5590 5595 5599 5603 5606 5608 5609 5610 5610 5610 5608 5606 5603 5599 5594 5588 5582 5575 5568 5560 5551 5543 5534 5525 5514 5505 5495 5485 5473
5588 5583 5579 5575 5573 5571 5570 5570 5571 5573 5576 5580 5583 5587 5590 5594 5598 5600 5602 5603 5604 5604 5604 5602 5599 5596 5593 5588 5582 5576 5569 5562 5554 5545 5536 5527 5517 5507 5496 5485 5474 5463 5453
5591 5587 5584 5582 5579 5578 5577 5577 5577 5579 5581 5583 5585 5588 5591 5594 5596 5597 5598 5598 5598 5598 5597 5594 5590 5586 5581 5576 5569 5563 5556 5548 5540 5531 5521 5510 5499 5488 5476 5464 5453 5442 5432
5594 5591 5588 5586 5585 5583 5583 5582 5583 5583 5585 5586 5588 5590 5591 5592 5593 5594 5594 5594 5593 5591 5588 5584 5580 5575 5570 5564 5558 5550 5542 5534 5525 5514 5503 5492 5481 5469 5456 5444 5434 5424 5416
5596 5593 5591 5590 5588 5587 5587 5586 5587 5587 5587 5588 5589 5589 5590 5590 5590 5590 5589 5587 5585 5582 5579 5575 5570 5565 5559 5553 5546 5538 5529 5519 5508 5496 5484 5472 5460 5448 5437 5426 5418 5411 5405
5597 5595 5593 5592 5591 5590 5589 5589 5589 5589 5588 5588 5588 5588 5588 5587 5586 5584 5582 5580 5577 5574 5570 5566 5561 5555 5549 5542 5534 5524 5514 5502 5491 5478 5465 5452 5440 5429 5419 5412 5406 5402 5397
5597 5595 5594 5593 5592 5591 5590 5590 5589 5588 5588 5587 5586 5585 5584 5582 5580 5578 5576 5573 5570 5566 5562 5558 5552 5546 5539 5530 5520 5509 5497 5484 5472 5459 5446 5434 5423 5415 5408 5403 5400 5396 5392